Flag for Germany Weather past 2 weeks in Höxter, North Rhine-Westphalia, Germany

Now
54 °F

Overcast.


Feels Like: 54 °F
Forecast: 40 / 63 °F
Wind: 3 mph from South

Location: Bad Lippspringe

Current Time: May 28, 2015 at 8:09:22 AM

Latest Report: May 28, 2015 at 7:00 AM


Visibility: 16 mi

Pressure: 29.97 "Hg

Humidity: 60%

Dew point: 41 °F

Location of HöxterLocation

Historic Weather in Höxter — Graph

°F

Höxter temperature yesterday

Maximum temperature yesterday: 60 °F (at 4:00 PM)
Minimum temperature yesterday: 41 °F (at 4:00 AM)
Average temperature yesterday: 50 °F

Past Weeks' High & Low Weather Summary

 TemperatureHumidityPressure
High69 °F (May 18, 4:00 PM)98% (May 17, 5:00 AM)30.35 "Hg (May 17, 5:00 AM)
Low35 °F (May 17, 5:00 AM)37% (May 19, 4:00 PM)29.62 "Hg (May 18, 9:00 PM)
Average52 °F70%30.07 "Hg
* Reported May 13 7:00 AM — May 28 7:00 AM, Höxter, Weather by CustomWeather, © 2015

Note: Actual official high and low records may vary slightly from our data, if they occured in-between our weather recording intervals... More about our weather records

Advertising

Höxter weather history for previous 24 hours

 ConditionsComfort  
Time TempWeatherWind HumidityBarometerVisibility
7:00 AM
Thu, May 28
54 °FOvercast.3 mph60%29.97 "Hg16 mi
6:00 AM53 °FOvercast.3 mph60%29.98 "Hg16 mi
5:00 AM53 °FOvercast.3 mph59%29.99 "Hg15 mi
4:00 AM53 °FOvercast.3 mph58%30.01 "Hg13 mi
3:00 AM52 °FPassing clouds.2 mph62%30.04 "Hg12 mi
2:00 AM51 °FPassing clouds.2 mph63%30.05 "Hg12 mi
1:00 AM51 °FClear.2 mph64%30.07 "Hg13 mi
12:00 AM51 °FPassing clouds.2 mph65%30.09 "Hg19 mi
11:00 PM
Wed, May 27
49 °FClear.2 mph70%30.12 "Hg15 mi
10:00 PM50 °FClear.2 mph72%30.13 "Hg16 mi
9:00 PM54 °FPassing clouds.2 mph59%30.13 "Hg14 mi
8:00 PM58 °FPassing clouds.3 mph50%30.14 "Hg16 mi
7:00 PM59 °FOvercast.3 mph48%30.16 "Hg19 mi
6:00 PM59 °FOvercast.2 mph46%30.18 "Hg22 mi
5:00 PM58 °FOvercast.3 mph45%30.19 "Hg25 mi
4:00 PM60 °FPartly sunny.3 mph45%30.19 "Hg22 mi
3:00 PM57 °FOvercast.3 mph53%30.22 "Hg19 mi
2:00 PM56 °FOvercast.3 mph57%30.23 "Hg22 mi
1:00 PM55 °FOvercast.5 mph60%30.24 "Hg22 mi
12:00 PM54 °FOvercast.3 mph65%30.24 "Hg19 mi
11:00 AM53 °FOvercast.3 mph72%30.25 "Hg19 mi
10:00 AM50 °FOvercast.2 mph78%30.26 "Hg16 mi
9:00 AM48 °FOvercast.1 mph82%30.26 "Hg12 mi
8:00 AM47 °FOvercast.2 mph87%30.25 "Hg11 mi
Weather by CustomWeather, © 2015

See weather overviewHow to use our weather pages